time, sensor1
2022-03-25T0:00:00,0.181671244
2022-03-25T0:00:01,0.289776244
2022-03-25T0:00:02,0.466563483
2022-03-25T0:00:03,0.713147606
2022-03-25T0:00:04,1.096560975
2022-03-25T0:00:05,1.069943695
2022-03-25T0:00:06,0.903611268
2022-03-25T0:00:07,0.772584998
2022-03-25T0:00:08,0.479891798
2022-03-25T0:00:09,0.24093074
2022-03-25T0:00:10,-0.003051899
2022-03-25T0:00:11,-0.337593791
2022-03-25T0:00:12,-0.583947287
2022-03-25T0:00:13,-0.856327845
2022-03-25T0:00:14,-0.958071737
2022-03-25T0:00:15,-0.921594593
2022-03-25T0:00:16,-0.955451484
2022-03-25T0:00:17,-0.988984772
2022-03-25T0:00:18,-0.43093468
2022-03-25T0:00:19,-0.329849435
2022-03-25T0:00:20,0.058102429
2022-03-25T0:00:21,0.229424382
2022-03-25T0:00:22,0.50607951
2022-03-25T0:00:23,0.861119456
2022-03-25T0:00:24,0.941856472
2022-03-25T0:00:25,0.915176222
2022-03-25T0:00:26,0.936050788
2022-03-25T0:00:27,0.81917926
2022-03-25T0:00:28,0.617096833
2022-03-25T0:00:29,0.304090468
2022-03-25T0:00:30,-0.098954556
2022-03-25T0:00:31,-0.344195418
2022-03-25T0:00:32,-0.607197724
2022-03-25T0:00:33,-0.839304257
2022-03-25T0:00:34,-1.003590002
2022-03-25T0:00:35,-1.042348366
2022-03-25T0:00:36,-1.016067214
2022-03-25T0:00:37,-0.861139272
2022-03-25T0:00:38,-0.534187751
2022-03-25T0:00:39,-0.278992781
2022-03-25T0:00:40,0.053409326
2022-03-25T0:00:41,0.225497845
2022-03-25T0:00:42,0.784815825
2022-03-25T0:00:43,0.852533627
2022-03-25T0:00:44,0.972564166
2022-03-25T0:00:45,0.907200866
2022-03-25T0:00:46,1.044372326
2022-03-25T0:00:47,0.846579713
2022-03-25T0:00:48,0.576289321
2022-03-25T0:00:49,0.365612573
2022-03-25T0:00:50,-0.10187754
2022-03-25T0:00:51,-0.206286317
2022-03-25T0:00:52,-0.677655924
2022-03-25T0:00:53,-0.735718293
2022-03-25T0:00:54,-0.956999421
2022-03-25T0:00:55,-0.94317784
2022-03-25T0:00:56,-0.903468597
2022-03-25T0:00:57,-0.676935778
2022-03-25T0:00:58,-0.498779307
2022-03-25T0:00:59,-0.440341176
2022-03-25T0:01:00,-0.056422076
2022-03-25T0:01:01,0.317610433
2022-03-25T0:01:02,0.691202397
2022-03-25T0:01:03,0.883871813
2022-03-25T0:01:04,0.924959989
2022-03-25T0:01:05,0.792229116
2022-03-25T0:01:06,0.964309359
2022-03-25T0:01:07,0.82231836
2022-03-25T0:01:08,0.646234184
2022-03-25T0:01:09,0.260048717
2022-03-25T0:01:10,-0.098847776
2022-03-25T0:01:11,-0.243788253
2022-03-25T0:01:12,-0.656599929
2022-03-25T0:01:13,-0.793269793
2022-03-25T0:01:14,-1.071019906
2022-03-25T0:01:15,-0.974230809
2022-03-25T0:01:16,-1.007664515
2022-03-25T0:01:17,-0.704272633
2022-03-25T0:01:18,-0.645825669
2022-03-25T0:01:19,-0.235051542
2022-03-25T0:01:20,-0.108231389
2022-03-25T0:01:21,0.311876918
2022-03-25T0:01:22,0.554385114
2022-03-25T0:01:23,0.857571533
2022-03-25T0:01:24,0.915196704
2022-03-25T0:01:25,0.912193995
2022-03-25T0:01:26,0.878431986
2022-03-25T0:01:27,0.720460246
2022-03-25T0:01:28,0.589973774
2022-03-25T0:01:29,0.412301958
2022-03-25T0:01:30,0.063777995
2022-03-25T0:01:31,-0.291975886
2022-03-25T0:01:32,-0.584889561
2022-03-25T0:01:33,-0.820118711
2022-03-25T0:01:34,-0.932603761
2022-03-25T0:01:35,-0.949388529
2022-03-25T0:01:36,-0.93132853
2022-03-25T0:01:37,-0.874440006
2022-03-25T0:01:38,-0.633038245
2022-03-25T0:01:39,-0.306260858
2022-03-25T0:01:40,-0.019182262
2022-03-25T0:01:41,0.235622708
2022-03-25T0:01:42,0.647694129
2022-03-25T0:01:43,0.886453443
2022-03-25T0:01:44,0.905434619
2022-03-25T0:01:45,1.102604085
2022-03-25T0:01:46,1.052397408
2022-03-25T0:01:47,0.723216883
2022-03-25T0:01:48,0.563914904
2022-03-25T0:01:49,0.420029332
2022-03-25T0:01:50,-0.094394502
2022-03-25T0:01:51,-0.429367353
2022-03-25T0:01:52,-0.627170959
2022-03-25T0:01:53,-0.903098948
2022-03-25T0:01:54,-0.851374951
2022-03-25T0:01:55,-0.942110925
2022-03-25T0:01:56,-1.060125403
2022-03-25T0:01:57,-0.688372499
2022-03-25T0:01:58,-0.606245327
2022-03-25T0:01:59,-0.264590764
2022-03-25T0:02:00,-0.0531299
2022-03-25T0:02:01,0.333666288
2022-03-25T0:02:02,0.591166401
2022-03-25T0:02:03,0.853715783
2022-03-25T0:02:04,1.045603501
2022-03-25T0:02:05,0.940438362
2022-03-25T0:02:06,1.01968989
2022-03-25T0:02:07,0.83047005
2022-03-25T0:02:08,0.621833695
2022-03-25T0:02:09,0.34680018
2022-03-25T0:02:10,-0.062553559
2022-03-25T0:02:11,-0.402550309
2022-03-25T0:02:12,-0.580621238
2022-03-25T0:02:13,-0.789444223
2022-03-25T0:02:14,-0.884039561
2022-03-25T0:02:15,-1.035324688
2022-03-25T0:02:16,-0.969812888
2022-03-25T0:02:17,-0.873895038
2022-03-25T0:02:18,-0.594774431
2022-03-25T0:02:19,-0.201490402
2022-03-25T0:02:20,0.065175732
2022-03-25T0:02:21,0.32824259
2022-03-25T0:02:22,0.619228658
2022-03-25T0:02:23,0.822998817
2022-03-25T0:02:24,1.019035275
2022-03-25T0:02:25,1.059855424
2022-03-25T0:02:26,1.007168047
2022-03-25T0:02:27,0.745137353
2022-03-25T0:02:28,0.547185067
2022-03-25T0:02:29,0.28389493
2022-03-25T0:02:30,0.111071206
2022-03-25T0:02:31,-0.407282088
2022-03-25T0:02:32,-0.617907377
2022-03-25T0:02:33,-0.865081018
2022-03-25T0:02:34,-0.830941687
2022-03-25T0:02:35,-1.216522827
2022-03-25T0:02:36,-0.850198372
2022-03-25T0:02:37,-0.775809119
2022-03-25T0:02:38,-0.523106169
2022-03-25T0:02:39,-0.383471086
2022-03-25T0:02:40,0.041609068
2022-03-25T0:02:41,0.171568493
2022-03-25T0:02:42,0.600483364
2022-03-25T0:02:43,0.838558732
2022-03-25T0:02:44,0.932872776
2022-03-25T0:02:45,0.882508197
2022-03-25T0:02:46,1.016486904
2022-03-25T0:02:47,0.855327694
2022-03-25T0:02:48,0.669603846
2022-03-25T0:02:49,0.183666359
2022-03-25T0:02:50,-0.037464393
2022-03-25T0:02:51,-0.319459032
2022-03-25T0:02:52,-0.559294789
2022-03-25T0:02:53,-0.842445854
2022-03-25T0:02:54,-0.888150061
2022-03-25T0:02:55,-1.065104156
2022-03-25T0:02:56,-0.860978039
2022-03-25T0:02:57,-0.827885849
2022-03-25T0:02:58,-0.649492176
2022-03-25T0:02:59,-0.256986271
2022-03-25T0:03:00,-0.050430619
2022-03-25T0:03:01,0.347304042
2022-03-25T0:03:02,0.640443335
2022-03-25T0:03:03,0.778053395
2022-03-25T0:03:04,0.887521568
2022-03-25T0:03:05,1.032678585
2022-03-25T0:03:06,1.015346722
2022-03-25T0:03:07,0.697051896
2022-03-25T0:03:08,0.685207904
2022-03-25T0:03:09,0.322045335
2022-03-25T0:03:10,-0.013726174
2022-03-25T0:03:11,-0.401785522
2022-03-25T0:03:12,-0.483899307
2022-03-25T0:03:13,-0.769873659
2022-03-25T0:03:14,-0.891319373
2022-03-25T0:03:15,-1.023571051
2022-03-25T0:03:16,-1.048559486
2022-03-25T0:03:17,-0.780619737
2022-03-25T0:03:18,-0.547311616
2022-03-25T0:03:19,-0.347267489
2022-03-25T0:03:20,0.085790514
2022-03-25T0:03:21,0.299548144
2022-03-25T0:03:22,0.503834672
2022-03-25T0:03:23,0.843371996
2022-03-25T0:03:24,1.049760177
2022-03-25T0:03:25,0.880442699
2022-03-25T0:03:26,0.867732615
2022-03-25T0:03:27,0.873263546
2022-03-25T0:03:28,0.54442951
2022-03-25T0:03:29,0.319682555
2022-03-25T0:03:30,0.025133794
2022-03-25T0:03:31,-0.227841079
2022-03-25T0:03:32,-0.671317775
2022-03-25T0:03:33,-0.840254866
2022-03-25T0:03:34,-0.936292407
2022-03-25T0:03:35,-0.955204288
2022-03-25T0:03:36,-0.839920951
2022-03-25T0:03:37,-0.77478181
2022-03-25T0:03:38,-0.650777891
2022-03-25T0:03:39,-0.444519499
2022-03-25T0:03:40,0.016537783
2022-03-25T0:03:41,0.211744246
2022-03-25T0:03:42,0.544385598
2022-03-25T0:03:43,0.871300166
2022-03-25T0:03:44,0.825895469
2022-03-25T0:03:45,0.924529999
2022-03-25T0:03:46,0.936429691
2022-03-25T0:03:47,0.790315123
2022-03-25T0:03:48,0.617924154
2022-03-25T0:03:49,0.327174487
2022-03-25T0:03:50,0.116980706
2022-03-25T0:03:51,-0.226072928
2022-03-25T0:03:52,-0.727669917
2022-03-25T0:03:53,-0.800124474
2022-03-25T0:03:54,-0.86443332
2022-03-25T0:03:55,-0.990056711
2022-03-25T0:03:56,-0.969346377
2022-03-25T0:03:57,-0.804785387
2022-03-25T0:03:58,-0.49603303
2022-03-25T0:03:59,-0.288035616
2022-03-25T0:04:00,-0.088844357
2022-03-25T0:04:01,0.368263395
2022-03-25T0:04:02,0.579865793
2022-03-25T0:04:03,0.798242408
2022-03-25T0:04:04,0.90027013
2022-03-25T0:04:05,0.939525268
2022-03-25T0:04:06,1.07795434
2022-03-25T0:04:07,0.85524997
2022-03-25T0:04:08,0.469438168
2022-03-25T0:04:09,0.412480269
2022-03-25T0:04:10,0.082041277
2022-03-25T0:04:11,-0.282710368
2022-03-25T0:04:12,-0.624898931
2022-03-25T0:04:13,-0.786619543
2022-03-25T0:04:14,-0.980636634
2022-03-25T0:04:15,-1.11089341
2022-03-25T0:04:16,-0.861380414
2022-03-25T0:04:17,-1.002040315
2022-03-25T0:04:18,-0.553058716
2022-03-25T0:04:19,-0.162088202
2022-03-25T0:04:20,0.017381258
2022-03-25T0:04:21,0.432951093
2022-03-25T0:04:22,0.537075977
2022-03-25T0:04:23,0.884085027
2022-03-25T0:04:24,0.953073336
2022-03-25T0:04:25,0.91719895
2022-03-25T0:04:26,0.849705788
2022-03-25T0:04:27,0.714475602
2022-03-25T0:04:28,0.490188132
2022-03-25T0:04:29,0.275881418
2022-03-25T0:04:30,0.035873398
2022-03-25T0:04:31,-0.282701626
2022-03-25T0:04:32,-0.650845002
2022-03-25T0:04:33,-0.86863416
2022-03-25T0:04:34,-0.926236965
2022-03-25T0:04:35,-1.036577312
2022-03-25T0:04:36,-0.973260588
2022-03-25T0:04:37,-0.908463921
2022-03-25T0:04:38,-0.51450458
2022-03-25T0:04:39,-0.273271417
2022-03-25T0:04:40,0.036385238
2022-03-25T0:04:41,0.324551657
2022-03-25T0:04:42,0.613539328
2022-03-25T0:04:43,0.783116403
2022-03-25T0:04:44,0.9858758
2022-03-25T0:04:45,0.898772862
2022-03-25T0:04:46,0.934772561
2022-03-25T0:04:47,0.810060917
2022-03-25T0:04:48,0.511840068
2022-03-25T0:04:49,0.328522914
2022-03-25T0:04:50,-0.016731772
2022-03-25T0:04:51,-0.347738843
2022-03-25T0:04:52,-0.561048299
2022-03-25T0:04:53,-0.907842784
2022-03-25T0:04:54,-0.965967075
2022-03-25T0:04:55,-0.874295073
2022-03-25T0:04:56,-0.874542689
2022-03-25T0:04:57,-0.889739156
2022-03-25T0:04:58,-0.546800643
2022-03-25T0:04:59,-0.386905241
2022-03-25T0:05:00,-0.015776346
2022-03-25T0:05:01,0.377032347
2022-03-25T0:05:02,0.634095718
2022-03-25T0:05:03,0.778871482
2022-03-25T0:05:04,0.948579158
2022-03-25T0:05:05,0.966433754
2022-03-25T0:05:06,0.87830756
2022-03-25T0:05:07,0.83268017
2022-03-25T0:05:08,0.546336324
2022-03-25T0:05:09,0.269309321
2022-03-25T0:05:10,-0.065638436
2022-03-25T0:05:11,-0.331772699
2022-03-25T0:05:12,-0.622400196
2022-03-25T0:05:13,-0.762579822
2022-03-25T0:05:14,-0.939281383
2022-03-25T0:05:15,-0.930125339
2022-03-25T0:05:16,-0.973180228
2022-03-25T0:05:17,-0.839026239
2022-03-25T0:05:18,-0.509197339
2022-03-25T0:05:19,-0.23521398
2022-03-25T0:05:20,0.041254337
2022-03-25T0:05:21,0.262105235
2022-03-25T0:05:22,0.595713603
2022-03-25T0:05:23,0.835130002
2022-03-25T0:05:24,0.943883223
2022-03-25T0:05:25,1.016747648
2022-03-25T0:05:26,1.061816264
2022-03-25T0:05:27,0.839515008
2022-03-25T0:05:28,0.542587038
2022-03-25T0:05:29,0.404029651
2022-03-25T0:05:30,-0.066134585
2022-03-25T0:05:31,-0.333162753
2022-03-25T0:05:32,-0.5562592
2022-03-25T0:05:33,-0.675215116
2022-03-25T0:05:34,-0.972914634
2022-03-25T0:05:35,-0.845575473
2022-03-25T0:05:36,-1.0528976
2022-03-25T0:05:37,-0.774499279
2022-03-25T0:05:38,-0.640037277
2022-03-25T0:05:39,-0.308718411
2022-03-25T0:05:40,0.00421398
2022-03-25T0:05:41,0.300254361
2022-03-25T0:05:42,0.573157269
2022-03-25T0:05:43,0.861762943
2022-03-25T0:05:44,0.960783321
2022-03-25T0:05:45,0.947709309
2022-03-25T0:05:46,1.029277913
2022-03-25T0:05:47,0.695944598
2022-03-25T0:05:48,0.628008432
2022-03-25T0:05:49,0.266196597
2022-03-25T0:05:50,0.01703481
2022-03-25T0:05:51,-0.461369764
2022-03-25T0:05:52,-0.692576709
2022-03-25T0:05:53,-0.893647911
2022-03-25T0:05:54,-0.971048583
2022-03-25T0:05:55,-1.216260921
2022-03-25T0:05:56,-0.846813014
2022-03-25T0:05:57,-0.756415841
2022-03-25T0:05:58,-0.626621499
2022-03-25T0:05:59,-0.300200834
2022-03-25T0:06:00,0.037474741
2022-03-25T0:06:01,0.187386314
2022-03-25T0:06:02,0.510400676
2022-03-25T0:06:03,0.769407911
2022-03-25T0:06:04,0.905717034
2022-03-25T0:06:05,1.077328548
2022-03-25T0:06:06,1.028024018
2022-03-25T0:06:07,0.772007254
2022-03-25T0:06:08,0.554139282
2022-03-25T0:06:09,0.272295505
2022-03-25T0:06:10,0.067629694
2022-03-25T0:06:11,-0.37352846
2022-03-25T0:06:12,-0.592112188
2022-03-25T0:06:13,-0.825899061
2022-03-25T0:06:14,-0.946027211
2022-03-25T0:06:15,-0.971388377
2022-03-25T0:06:16,-0.893138845
2022-03-25T0:06:17,-0.804275329
2022-03-25T0:06:18,-0.64938006
2022-03-25T0:06:19,-0.458063584
2022-03-25T0:06:20,-0.116036554
2022-03-25T0:06:21,0.32875128
2022-03-25T0:06:22,0.577720537
2022-03-25T0:06:23,0.75718836
2022-03-25T0:06:24,0.847824966
2022-03-25T0:06:25,0.974362405
2022-03-25T0:06:26,0.895991404
2022-03-25T0:06:27,0.811954781
2022-03-25T0:06:28,0.586600135
2022-03-25T0:06:29,0.482909371
2022-03-25T0:06:30,-0.085811935
2022-03-25T0:06:31,-0.284964958
2022-03-25T0:06:32,-0.63734136
2022-03-25T0:06:33,-0.83097377
2022-03-25T0:06:34,-0.873970516
2022-03-25T0:06:35,-1.000176808
2022-03-25T0:06:36,-0.997812911
2022-03-25T0:06:37,-0.774800832
2022-03-25T0:06:38,-0.672244166
2022-03-25T0:06:39,-0.372932998
2022-03-25T0:06:40,0.077585106
2022-03-25T0:06:41,0.323107352
2022-03-25T0:06:42,0.589716586
2022-03-25T0:06:43,0.838142122
2022-03-25T0:06:44,0.934334276
2022-03-25T0:06:45,1.057759944
2022-03-25T0:06:46,0.904293832
2022-03-25T0:06:47,0.72552826
2022-03-25T0:06:48,0.738470198
2022-03-25T0:06:49,0.319553731
2022-03-25T0:06:50,0.01002633
2022-03-25T0:06:51,-0.381638423
2022-03-25T0:06:52,-0.570304455
2022-03-25T0:06:53,-0.795035311
2022-03-25T0:06:54,-0.970893448
2022-03-25T0:06:55,-0.907381964
2022-03-25T0:06:56,-0.952061415
2022-03-25T0:06:57,-0.838434804
2022-03-25T0:06:58,-0.551305107
2022-03-25T0:06:59,-0.431859369
2022-03-25T0:07:00,-0.113167265
2022-03-25T0:07:01,0.356804124
2022-03-25T0:07:02,0.592302342
2022-03-25T0:07:03,0.733984336
2022-03-25T0:07:04,0.941793603
2022-03-25T0:07:05,0.957749295
2022-03-25T0:07:06,0.961942209
2022-03-25T0:07:07,0.895787087
2022-03-25T0:07:08,0.572666126
2022-03-25T0:07:09,0.323864799
2022-03-25T0:07:10,-0.034290495
2022-03-25T0:07:11,-0.28876801
2022-03-25T0:07:12,-0.649699364
2022-03-25T0:07:13,-0.740854737
2022-03-25T0:07:14,-0.906738236
2022-03-25T0:07:15,-1.080152413
2022-03-25T0:07:16,-0.830798779
2022-03-25T0:07:17,-0.755306176
2022-03-25T0:07:18,-0.450844041
2022-03-25T0:07:19,-0.353774625
2022-03-25T0:07:20,0.04075466
2022-03-25T0:07:21,0.157754216
2022-03-25T0:07:22,0.687862552
2022-03-25T0:07:23,0.716914195
2022-03-25T0:07:24,0.935926462
2022-03-25T0:07:25,1.018239959
2022-03-25T0:07:26,0.91036839
2022-03-25T0:07:27,0.854971571
2022-03-25T0:07:28,0.567870653
2022-03-25T0:07:29,0.304733376
2022-03-25T0:07:30,-0.011030093
2022-03-25T0:07:31,-0.268324088
2022-03-25T0:07:32,-0.603348148
2022-03-25T0:07:33,-0.884782945
2022-03-25T0:07:34,-0.857094554
2022-03-25T0:07:35,-1.086570355
2022-03-25T0:07:36,-0.843325816
2022-03-25T0:07:37,-0.780867378
2022-03-25T0:07:38,-0.611171771
2022-03-25T0:07:39,-0.257016152
2022-03-25T0:07:40,0.035131469
2022-03-25T0:07:41,0.441069237
2022-03-25T0:07:42,0.559440288
2022-03-25T0:07:43,0.807529725
2022-03-25T0:07:44,0.938303816
2022-03-25T0:07:45,0.921486618
2022-03-25T0:07:46,0.967905711
2022-03-25T0:07:47,0.755708049
2022-03-25T0:07:48,0.621082053
2022-03-25T0:07:49,0.398669138
2022-03-25T0:07:50,-0.118360599
2022-03-25T0:07:51,-0.265020532
2022-03-25T0:07:52,-0.650865585
2022-03-25T0:07:53,-0.794256037
2022-03-25T0:07:54,-0.885368651
2022-03-25T0:07:55,-1.046797304
2022-03-25T0:07:56,-0.991941814
2022-03-25T0:07:57,-0.785303826
2022-03-25T0:07:58,-0.590713783
2022-03-25T0:07:59,-0.258097403
2022-03-25T0:08:00,-0.158139647
2022-03-25T0:08:01,0.295237565
2022-03-25T0:08:02,0.512591585
2022-03-25T0:08:03,0.797321179
2022-03-25T0:08:04,0.920930131
2022-03-25T0:08:05,0.934102814
2022-03-25T0:08:06,1.051919819
2022-03-25T0:08:07,0.900605872
2022-03-25T0:08:08,0.468428108
2022-03-25T0:08:09,0.286072102
2022-03-25T0:08:10,-0.016274818
2022-03-25T0:08:11,-0.348773423
2022-03-25T0:08:12,-0.432194856
2022-03-25T0:08:13,-0.783424771
2022-03-25T0:08:14,-0.985884215
2022-03-25T0:08:15,-0.894378282
2022-03-25T0:08:16,-0.86752267
2022-03-25T0:08:17,-0.827009004
2022-03-25T0:08:18,-0.514245222
2022-03-25T0:08:19,-0.336374157
2022-03-25T0:08:20,0.147866029
2022-03-25T0:08:21,0.336990321
2022-03-25T0:08:22,0.538563673
2022-03-25T0:08:23,0.838042444
2022-03-25T0:08:24,0.880015669
2022-03-25T0:08:25,0.875271031
2022-03-25T0:08:26,1.000298286
2022-03-25T0:08:27,0.882337759
2022-03-25T0:08:28,0.568869409
2022-03-25T0:08:29,0.363456478
2022-03-25T0:08:30,0.008570612
2022-03-25T0:08:31,-0.372842576
2022-03-25T0:08:32,-0.518126694
2022-03-25T0:08:33,-0.797871062
2022-03-25T0:08:34,-1.050603736
2022-03-25T0:08:35,-1.04284555
2022-03-25T0:08:36,-0.976056142
2022-03-25T0:08:37,-0.764740544
2022-03-25T0:08:38,-0.649916281
2022-03-25T0:08:39,-0.381246528
2022-03-25T0:08:40,-0.032977861
2022-03-25T0:08:41,0.356051369
2022-03-25T0:08:42,0.526833709
2022-03-25T0:08:43,0.78437013
2022-03-25T0:08:44,1.017246617
2022-03-25T0:08:45,1.085032458
2022-03-25T0:08:46,0.970242977
2022-03-25T0:08:47,0.813250068
2022-03-25T0:08:48,0.664840812
2022-03-25T0:08:49,0.304641419
2022-03-25T0:08:50,0.0950727
2022-03-25T0:08:51,-0.31994494
2022-03-25T0:08:52,-0.58859321
2022-03-25T0:08:53,-0.816826585
2022-03-25T0:08:54,-0.946803602
2022-03-25T0:08:55,-1.060119757
2022-03-25T0:08:56,-0.982448109
2022-03-25T0:08:57,-0.78809345
2022-03-25T0:08:58,-0.592991882
2022-03-25T0:08:59,-0.291555378
2022-03-25T0:09:00,-0.11416219
2022-03-25T0:09:01,0.228204237
2022-03-25T0:09:02,0.529567261
2022-03-25T0:09:03,0.85365967
2022-03-25T0:09:04,1.050761003
2022-03-25T0:09:05,0.968952692
2022-03-25T0:09:06,0.965826326
2022-03-25T0:09:07,0.802354632
2022-03-25T0:09:08,0.513791466
2022-03-25T0:09:09,0.221033676
2022-03-25T0:09:10,0.072927146
2022-03-25T0:09:11,-0.200333075
2022-03-25T0:09:12,-0.611727972
2022-03-25T0:09:13,-0.834002952
2022-03-25T0:09:14,-0.951842867
2022-03-25T0:09:15,-1.029170382
2022-03-25T0:09:16,-0.962640586
2022-03-25T0:09:17,-0.899675486
2022-03-25T0:09:18,-0.675378719
2022-03-25T0:09:19,-0.335486808
2022-03-25T0:09:20,0.015097435
2022-03-25T0:09:21,0.289709956
2022-03-25T0:09:22,0.506338727
2022-03-25T0:09:23,0.668319327
2022-03-25T0:09:24,0.934010455
2022-03-25T0:09:25,1.087181112
2022-03-25T0:09:26,0.962139114
2022-03-25T0:09:27,0.610608496
2022-03-25T0:09:28,0.532927312
2022-03-25T0:09:29,0.187851364
2022-03-25T0:09:30,0.026802457
2022-03-25T0:09:31,-0.283667063
2022-03-25T0:09:32,-0.51215688
2022-03-25T0:09:33,-0.866182716
2022-03-25T0:09:34,-0.881249961
2022-03-25T0:09:35,-1.100151542
2022-03-25T0:09:36,-0.915813095
2022-03-25T0:09:37,-0.779381845
2022-03-25T0:09:38,-0.573598094
2022-03-25T0:09:39,-0.271777607
2022-03-25T0:09:40,-0.053488023
2022-03-25T0:09:41,0.269302916
2022-03-25T0:09:42,0.590455629
2022-03-25T0:09:43,0.850850772
2022-03-25T0:09:44,0.956691321
2022-03-25T0:09:45,0.965579274
2022-03-25T0:09:46,1.016251475
2022-03-25T0:09:47,0.896267133
2022-03-25T0:09:48,0.689008645
2022-03-25T0:09:49,0.234547626
2022-03-25T0:09:50,-0.076645588
2022-03-25T0:09:51,-0.378874619
2022-03-25T0:09:52,-0.504715
2022-03-25T0:09:53,-0.804932717
2022-03-25T0:09:54,-0.962461663
2022-03-25T0:09:55,-1.031455477
2022-03-25T0:09:56,-1.086184654
2022-03-25T0:09:57,-0.910605436
2022-03-25T0:09:58,-0.599691994
2022-03-25T0:09:59,-0.368262849
2022-03-25T0:10:00,-0.023219069
2022-03-25T0:10:01,0.246020585
2022-03-25T0:10:02,0.518332452
2022-03-25T0:10:03,0.703676143
2022-03-25T0:10:04,1.01001869
2022-03-25T0:10:05,0.989379216
2022-03-25T0:10:06,0.977202313
2022-03-25T0:10:07,0.77596619
2022-03-25T0:10:08,0.744464377
2022-03-25T0:10:09,0.336681185
2022-03-25T0:10:10,-0.175370719
2022-03-25T0:10:11,-0.251324203
2022-03-25T0:10:12,-0.482332677
2022-03-25T0:10:13,-0.765646529
2022-03-25T0:10:14,-1.03468718
2022-03-25T0:10:15,-0.826385689
2022-03-25T0:10:16,-0.950324951
2022-03-25T0:10:17,-0.808369662
2022-03-25T0:10:18,-0.511441418
2022-03-25T0:10:19,-0.357886498
2022-03-25T0:10:20,0.000198664
2022-03-25T0:10:21,0.315006115
2022-03-25T0:10:22,0.544137015
2022-03-25T0:10:23,0.776490391
2022-03-25T0:10:24,0.836389965
2022-03-25T0:10:25,1.16671317
2022-03-25T0:10:26,0.875727856
2022-03-25T0:10:27,0.814303035
2022-03-25T0:10:28,0.653638664
2022-03-25T0:10:29,0.356490397
2022-03-25T0:10:30,0.064559689
2022-03-25T0:10:31,-0.30546594
2022-03-25T0:10:32,-0.504809686
2022-03-25T0:10:33,-0.855092974
2022-03-25T0:10:34,-0.872097601
2022-03-25T0:10:35,-0.962214444
2022-03-25T0:10:36,-1.029941288
2022-03-25T0:10:37,-0.893748058
2022-03-25T0:10:38,-0.458191279
2022-03-25T0:10:39,-0.212145689
2022-03-25T0:10:40,-0.045849588
2022-03-25T0:10:41,0.363216634
2022-03-25T0:10:42,0.669707101
2022-03-25T0:10:43,0.737162717
2022-03-25T0:10:44,1.03031553
2022-03-25T0:10:45,1.063447794
2022-03-25T0:10:46,0.933148148
2022-03-25T0:10:47,0.803182704
2022-03-25T0:10:48,0.663804271
2022-03-25T0:10:49,0.327944214
2022-03-25T0:10:50,-0.053592871
2022-03-25T0:10:51,-0.326292289
2022-03-25T0:10:52,-0.445181922
2022-03-25T0:10:53,-0.760966814
2022-03-25T0:10:54,-0.989385787
2022-03-25T0:10:55,-0.912681934
2022-03-25T0:10:56,-0.896403759
2022-03-25T0:10:57,-0.833900437
2022-03-25T0:10:58,-0.617810413
2022-03-25T0:10:59,-0.280953573
2022-03-25T0:11:00,-0.049811354
2022-03-25T0:11:01,0.199548991
2022-03-25T0:11:02,0.529871198
2022-03-25T0:11:03,0.777704802
2022-03-25T0:11:04,0.919923613
2022-03-25T0:11:05,1.010354389
2022-03-25T0:11:06,0.861013262
2022-03-25T0:11:07,0.867178905
2022-03-25T0:11:08,0.533027605
2022-03-25T0:11:09,0.29789024
2022-03-25T0:11:10,-0.031062602
2022-03-25T0:11:11,-0.355357298
2022-03-25T0:11:12,-0.549704298
2022-03-25T0:11:13,-0.825815896
2022-03-25T0:11:14,-1.012512379
2022-03-25T0:11:15,-0.878228123
2022-03-25T0:11:16,-0.876885166
2022-03-25T0:11:17,-0.853643264
2022-03-25T0:11:18,-0.669094999
2022-03-25T0:11:19,-0.306481408
2022-03-25T0:11:20,0.137731434
2022-03-25T0:11:21,0.371042524
2022-03-25T0:11:22,0.7111563
2022-03-25T0:11:23,0.737351563
2022-03-25T0:11:24,0.954859181
2022-03-25T0:11:25,1.041430501
2022-03-25T0:11:26,0.880307375
2022-03-25T0:11:27,0.81356514
2022-03-25T0:11:28,0.62383684
2022-03-25T0:11:29,0.274881261
2022-03-25T0:11:30,-0.110337561
2022-03-25T0:11:31,-0.453959374
2022-03-25T0:11:32,-0.62241531
2022-03-25T0:11:33,-0.845350888
2022-03-25T0:11:34,-1.028619061
2022-03-25T0:11:35,-0.968850055
2022-03-25T0:11:36,-0.931236834
2022-03-25T0:11:37,-0.837376927
2022-03-25T0:11:38,-0.460515704
2022-03-25T0:11:39,-0.364893689
2022-03-25T0:11:40,-0.083999915
2022-03-25T0:11:41,0.250189586
2022-03-25T0:11:42,0.612106925
2022-03-25T0:11:43,0.818997382
2022-03-25T0:11:44,0.989813259
2022-03-25T0:11:45,0.819548222
2022-03-25T0:11:46,0.985335168
2022-03-25T0:11:47,0.779744075
2022-03-25T0:11:48,0.624222702
2022-03-25T0:11:49,0.326613399
2022-03-25T0:11:50,0.090634173
2022-03-25T0:11:51,-0.311230381
2022-03-25T0:11:52,-0.625459324
2022-03-25T0:11:53,-0.757874886
2022-03-25T0:11:54,-0.767159303
2022-03-25T0:11:55,-0.995305836
2022-03-25T0:11:56,-0.993920011
2022-03-25T0:11:57,-0.827225059
2022-03-25T0:11:58,-0.631602834
2022-03-25T0:11:59,-0.298266076
2022-03-25T0:12:00,-0.029232305
2022-03-25T0:12:01,0.393457878
2022-03-25T0:12:02,0.513095862
2022-03-25T0:12:03,0.866318861
2022-03-25T0:12:04,1.04929952
2022-03-25T0:12:05,1.052685271
2022-03-25T0:12:06,0.878635352
2022-03-25T0:12:07,0.692697657
2022-03-25T0:12:08,0.550297709
2022-03-25T0:12:09,0.382517911
2022-03-25T0:12:10,-0.041150247
2022-03-25T0:12:11,-0.187817352
2022-03-25T0:12:12,-0.671383249
2022-03-25T0:12:13,-0.683500312
2022-03-25T0:12:14,-0.867192034
2022-03-25T0:12:15,-1.059772813
2022-03-25T0:12:16,-0.855148323
2022-03-25T0:12:17,-0.868346845
2022-03-25T0:12:18,-0.595790061
2022-03-25T0:12:19,-0.382257774